Theta_e
348 352 355 358 359 357 360 359 358 358 355 355 354 354 351 353 356 358 359 356 353 356 355 353 356 354 349 346 354 354 348 351 355 343 346 348 348 351 350 350 355 351 355
348 352 356 356 354 354 357 359 358 359 358 358 358 360 360 357 360 363 359 359 355 351 352 353 351 355 353 354 352 351 349 351 349 346 345 338 343 347 349 353 352 352 353
348 352 353 353 352 353 356 357 358 358 360 361 358 359 358 358 355 356 357 358 356 354 350 350 353 353 351 347 349 350 349 344 345 351 343 335 331 342 349 345 348 349 350
350 354 353 352 352 353 355 358 358 359 362 364 356 355 353 350 354 355 356 356 355 355 352 350 351 352 350 347 345 344 343 344 341 348 347 348 345 334 330 339 338 347 348
346 352 354 354 354 354 353 355 358 360 364 364 363 357 356 354 354 354 355 359 356 354 352 351 352 350 350 348 348 347 348 346 346 344 345 345 345 342 335 329 334 340 340
345 352 356 358 356 354 354 353 356 358 364 362 361 361 358 358 355 352 352 352 354 352 352 350 349 347 346 342 345 347 345 346 348 348 341 338 337 336 335 334 337 336 334
345 350 354 355 356 352 353 354 356 355 360 360 356 359 359 360 355 352 349 352 349 354 350 349 348 347 347 349 346 348 346 347 346 344 342 341 339 341 343 339 338 336 334
345 349 352 353 352 351 354 355 357 357 358 358 360 362 361 354 353 353 356 351 347 350 352 353 355 353 352 351 351 348 346 347 346 348 348 347 350 350 346 342 338 332 330
343 347 352 351 351 352 354 355 356 358 358 358 361 360 360 359 355 358 360 354 354 350 352 353 351 352 354 350 350 348 346 344 344 344 343 346 348 348 346 344 343 335 326
341 345 345 345 349 353 356 357 358 358 358 359 357 359 359 358 358 360 356 356 356 354 355 353 353 352 353 351 350 349 348 346 345 345 344 344 346 349 351 349 347 342 337
339 341 338 346 349 349 352 355 356 358 359 360 357 358 356 356 358 357 356 356 358 356 356 350 354 353 351 351 350 349 347 344 346 347 345 345 348 346 350 349 347 343 340
336 339 340 344 347 347 351 354 355 357 358 360 358 356 356 356 356 356 355 358 356 356 354 353 349 352 350 351 344 343 346 343 343 341 344 344 347 346 347 345 343 343 341
342 340 339 348 348 349 351 353 355 356 357 359 356 354 352 355 354 355 355 355 354 353 351 353 351 348 349 345 346 346 344 344 344 341 341 344 344 343 345 345 344 343 337
342 342 348 353 356 355 352 352 353 354 356 356 356 355 354 354 353 354 355 353 354 352 346 347 347 346 348 348 347 344 343 344 343 341 342 344 344 344 345 346 344 341 337
340 348 352 355 357 356 355 353 354 354 357 357 355 356 354 355 352 353 354 354 352 350 349 346 346 347 344 336 342 343 342 342 342 341 343 339 336 334 334 340 342 340 334
340 346 353 355 356 356 355 354 355 356 359 357 356 358 358 352 350 351 353 353 352 354 354 350 345 347 349 326 331 333 335 339 340 336 339 337 333 331 332 333 331 340 335
338 342 346 352 361 359 358 356 357 361 360 358 356 357 357 356 354 353 353 351 351 354 353 352 347 345 347 323 322 326 329 331 336 337 340 338 337 338 335 329 330 330 330
343 345 343 348 356 357 361 360 359 360 359 358 354 356 356 352 352 351 352 353 354 353 352 351 350 348 334 320 320 321 330 326 334 335 339 338 338 335 338 337 336 335 335
344 349 349 347 352 353 359 360 357 355 355 357 357 353 355 353 351 351 352 353 354 352 350 351 349 349 338 319 317 323 329 326 330 333 332 336 336 325 325 335 335 334 330
343 344 349 352 354 361 358 354 357 355 353 356 354 354 356 354 352 352 353 355 353 350 348 348 349 338 342 315 313 322 329 330 329 331 334 324 328 318 319 329 332 331 333
339 342 344 348 354 358 360 358 359 353 359 358 353 350 354 354 353 353 354 353 351 348 349 346 347 346 342 327 311 311 331 330 331 329 328 331 316 314 312 312 331 323 321
336 339 342 346 350 353 355 352 350 352 354 352 350 346 352 351 351 352 351 351 349 348 345 345 344 343 342 322 310 309 312 323 332 334 327 322 309 310 310 314 314 311 316
334 337 337 340 347 352 354 352 343 335 334 324 323 343 348 351 353 351 349 347 348 344 342 340 338 342 344 335 311 307 308 311 324 332 323 316 307 306 307 308 309 307 321
332 334 336 339 341 348 351 347 338 339 328 323 322 340 343 347 349 344 347 343 340 340 343 341 337 340 343 342 332 328 322 313 320 325 326 323 317 314 318 318 312 316 319
326 326 327 330 336 340 348 344 345 339 330 332 335 338 341 339 339 343 343 342 326 335 340 341 337 336 330 323 312 323 329 325 314 321 335 333 328 328 327 326 325 317 317
324 322 322 322 325 332 332 335 344 344 339 338 336 337 338 338 339 339 333 318 317 307 303 302 320 318 308 299 299 299 299 299 301 325 326 324 325 324 325 325 325 325 321
Wind_Speed
17 16 15 13 10 10 12 11 9 10 5 5 5 6 7 6 4 3 6 6 7 9 8 5 3 4 4 5 3 3 6 4 1 4 5 4 6 6 3 5 2 7 4
18 17 15 12 10 10 11 10 10 10 8 6 5 1 2 3 1 1 3 5 7 8 8 8 7 6 4 3 3 4 4 2 3 3 1 2 4 2 4 3 2 3 5
19 18 16 12 11 12 12 10 10 11 10 5 6 2 1 2 3 3 3 3 4 5 9 8 6 4 3 3 4 3 5 5 3 4 3 2 4 2 2 5 5 4 2
19 18 18 13 12 12 11 12 11 12 9 8 8 9 4 3 2 2 4 4 2 3 4 6 8 6 4 5 4 4 5 5 6 3 5 4 2 0 3 4 7 4 5
18 20 18 15 13 12 12 11 10 9 8 7 5 4 3 4 4 2 4 2 4 3 5 3 4 5 4 4 5 6 8 6 6 6 2 4 1 1 2 2 4 1 4
15 18 17 17 13 11 12 12 10 8 7 8 6 4 4 2 1 3 2 4 4 4 5 5 3 3 3 3 3 4 1 4 5 4 3 3 3 4 3 6 4 2 3
13 15 15 14 13 12 11 11 12 10 9 9 8 7 4 3 3 3 4 4 4 3 6 6 5 4 4 3 3 4 3 4 3 3 3 4 5 3 4 5 2 2 1
12 14 16 13 13 13 12 11 13 11 9 8 7 6 5 4 4 5 4 3 4 4 6 6 5 5 6 5 4 3 3 2 4 5 5 4 4 4 5 5 4 2 2
14 15 18 17 14 13 12 11 12 9 9 9 7 7 6 5 4 2 2 4 3 6 9 9 8 6 6 5 5 3 2 3 4 5 5 5 4 3 3 2 4 4 3
15 15 14 13 14 14 12 11 13 11 12 11 10 8 8 7 6 5 6 2 4 4 2 2 3 6 5 4 4 3 4 4 4 4 5 5 4 5 3 4 4 4 3
16 14 13 14 16 16 14 12 13 11 10 8 8 9 8 9 7 6 5 3 3 3 1 2 1 2 4 5 5 6 6 6 6 4 5 5 5 4 3 3 4 5 4
15 15 15 16 15 16 14 12 12 12 11 8 8 8 7 7 7 6 6 4 4 3 4 3 4 2 3 4 3 3 4 5 4 3 3 5 3 2 4 4 5 5 5
12 11 12 12 12 13 13 13 12 12 12 10 7 9 8 9 8 7 8 7 5 6 5 4 3 4 4 2 2 1 5 3 3 3 2 4 5 3 2 3 3 4 6
8 11 9 9 7 9 12 12 13 13 14 12 10 10 12 10 10 9 8 8 7 7 5 4 3 0 2 2 3 2 1 4 4 2 2 4 4 5 4 3 2 7 6
9 10 9 8 7 8 9 11 12 12 14 13 12 10 13 11 7 8 7 7 6 6 6 6 3 3 2 4 4 2 3 4 5 2 3 6 6 6 7 4 3 6 6
7 6 9 10 9 9 8 10 10 11 13 13 10 9 9 13 9 7 7 7 7 4 3 4 6 3 2 5 5 3 3 8 4 3 2 6 9 7 6 6 11 3 7
7 4 3 7 8 10 11 11 10 9 9 12 11 10 9 8 8 8 7 7 7 6 5 5 3 4 5 9 4 4 3 4 5 3 3 3 5 7 7 4 6 7 6
7 7 7 9 5 9 12 12 11 11 11 11 12 12 13 12 10 10 9 7 6 5 5 5 4 5 5 10 6 2 2 3 6 6 5 2 3 4 5 6 6 6 4
6 7 9 7 8 7 6 10 12 11 12 12 10 12 13 12 12 12 10 8 6 5 4 3 3 4 7 9 7 4 1 1 3 5 3 6 6 4 5 3 6 5 4
8 7 11 9 8 6 7 8 8 10 12 13 12 13 14 13 13 10 9 8 6 6 5 5 4 6 6 10 10 6 2 1 3 5 3 3 4 1 6 5 6 5 5
9 8 9 10 11 11 12 9 7 10 8 9 11 14 14 11 11 10 8 7 7 8 5 6 4 5 5 8 10 10 5 3 1 1 3 3 7 5 2 3 3 3 6
12 12 8 7 9 10 10 11 10 8 6 9 14 13 15 11 9 8 8 8 7 5 7 5 4 6 7 10 8 9 7 4 3 2 1 3 9 7 6 4 1 4 6
12 12 12 10 8 9 8 9 6 4 11 17 27 11 10 7 8 7 6 5 4 5 7 7 4 3 5 6 11 10 7 5 3 4 6 6 6 7 5 7 5 2 3
14 16 17 15 12 10 7 8 4 1 13 14 8 4 7 8 5 5 6 4 7 7 2 2 3 4 4 6 6 6 5 7 5 6 6 8 8 7 4 2 4 4 4
13 15 16 15 16 17 7 5 3 6 8 9 11 9 5 5 6 4 2 4 4 2 4 3 3 3 7 3 5 5 4 2 3 3 2 1 4 4 5 5 6 4 4
11 12 14 15 15 17 16 14 3 4 5 5 6 6 6 5 4 6 4 8 3 5 8 7 8 6 11 10 9 9 8 5 2 2 2 2 2 3 3 3 4 2 6
Wind_Direction
164 150 152 152 149 145 153 157 175 150 167 189 205 208 193 200 189 208 217 226 216 204 197 206 241 204 237 265 316 230 253 254 206 28 276 249 200 238 268 262 193 163 60
155 149 149 150 163 153 156 163 166 162 200 182 214 4 344 82 112 204 202 234 227 205 209 199 204 214 215 228 252 244 241 254 228 227 188 281 297 310 307 335 7 277 165
155 150 153 165 175 160 161 171 168 163 214 219 119 136 104 7 206 197 191 178 206 199 196 205 192 181 217 232 234 234 208 234 272 213 188 201 227 345 357 360 318 40 25
152 153 155 166 181 163 166 162 171 179 197 182 164 188 196 190 196 199 145 158 174 138 196 185 187 196 187 204 220 231 240 252 248 254 223 235 131 139 337 28 331 322 58
161 158 156 164 184 167 164 161 174 190 187 163 262 162 200 168 154 106 138 127 144 183 150 157 195 193 195 215 241 261 237 224 225 216 196 206 151 82 226 234 227 178 50
158 152 154 160 176 178 164 163 165 188 203 167 201 207 170 138 136 143 229 162 165 169 176 177 177 187 199 229 266 278 330 303 248 232 167 175 171 186 185 231 228 200 64
153 147 154 155 168 177 170 164 158 183 203 185 176 205 202 141 195 199 216 155 202 187 184 175 178 189 210 231 251 268 239 205 234 193 198 203 215 202 229 228 228 140 146
156 151 151 162 173 180 176 176 158 175 194 177 203 158 197 194 185 214 267 239 200 188 172 187 181 203 187 212 229 210 221 238 247 240 222 221 223 227 227 232 197 131 124
164 169 164 165 172 171 178 173 154 175 180 184 184 174 187 214 199 185 293 275 117 173 178 192 182 192 198 201 190 216 204 170 265 266 260 244 255 244 229 246 222 161 157
166 166 169 160 163 170 175 170 154 176 180 191 166 172 187 190 192 170 207 276 86 60 0 8 59 160 172 189 210 232 213 228 238 244 234 242 246 213 222 211 215 195 175
169 168 162 159 167 173 172 166 156 170 177 192 159 159 176 187 173 206 155 154 167 164 214 223 309 134 175 184 197 211 200 222 228 253 272 261 254 260 229 228 224 192 177
167 164 166 169 175 171 166 157 158 163 175 196 156 160 163 168 178 189 161 192 145 171 236 179 194 201 249 234 232 266 306 210 202 256 251 271 318 247 258 246 230 168 162
179 155 168 161 175 164 154 155 164 171 176 177 165 162 167 174 191 198 169 164 172 179 202 197 156 212 262 357 196 177 332 333 268 232 37 305 281 314 317 297 239 145 113
158 148 158 145 167 145 149 163 179 181 169 173 187 181 168 180 188 199 174 161 182 182 193 202 158 3 263 283 305 131 252 294 282 162 344 298 38 20 352 2 88 136 134
164 147 141 145 157 150 157 175 187 192 169 173 188 187 168 170 182 201 175 169 194 203 141 126 128 150 11 38 295 150 239 230 262 166 193 80 81 67 53 354 148 136 117
170 166 161 163 175 175 183 192 200 197 159 171 186 175 164 173 186 170 182 178 187 159 156 169 177 176 130 86 47 17 7 359 297 269 202 139 133 119 96 70 62 105 140
29 28 218 202 186 187 188 207 205 196 196 174 178 163 169 166 163 163 185 190 176 187 178 198 174 186 160 135 91 39 20 4 336 318 290 339 120 161 130 104 91 82 67
7 16 343 335 253 208 202 202 201 198 199 183 186 172 172 171 169 178 191 177 178 182 178 196 194 200 116 131 134 54 12 355 350 332 331 29 178 75 94 170 167 154 153
25 351 340 313 301 292 247 206 211 185 196 189 194 175 177 174 176 189 176 174 165 164 157 180 177 217 141 153 148 161 182 341 317 301 17 41 40 74 63 347 138 145 148
26 3 335 296 296 334 277 283 219 188 194 195 202 194 180 181 179 180 187 157 163 144 187 166 181 172 144 174 154 165 171 157 349 346 298 99 107 45 30 348 345 178 169
354 10 346 327 339 334 338 291 255 218 218 200 201 211 185 170 172 177 167 150 174 170 171 153 155 158 172 173 166 163 172 188 146 133 2 257 164 152 86 56 355 353 321
356 348 328 329 328 331 333 338 323 291 253 233 226 209 183 169 156 164 165 171 159 156 145 175 184 184 157 136 170 164 194 173 240 121 70 345 155 172 186 185 122 315 328
348 332 327 326 327 328 344 330 19 16 57 16 334 263 160 111 112 159 174 153 147 201 184 177 199 119 149 146 147 169 186 178 231 263 151 160 163 192 210 229 213 269 257
356 346 335 331 335 331 3 49 61 181 122 123 232 215 63 83 126 139 140 192 198 211 120 103 142 136 153 138 151 160 180 203 205 235 211 207 191 208 237 253 215 228 229
17 358 343 335 333 338 315 114 133 134 186 171 177 177 160 158 174 146 191 222 40 46 191 212 75 61 88 85 81 95 108 101 108 321 317 248 208 236 216 225 220 203 220
34 17 12 13 4 12 22 13 316 187 193 179 180 182 165 163 178 157 124 358 96 144 118 109 106 61 100 124 106 103 104 107 115 170 267 259 264 280 281 313 308 312 207